DMSP 5D-2 F13 DEB, 40463

Orbit data source: Space-Track

DMSP 5D-2 F13 DEB, 40463 is space debris in SSO originally from a launch on Fri, 24 Mar 1995 UTC launched from the Air Force Western Test Range (AFWTR). Debris objects in space refer to the collection of defunct objects orbiting the Earth. Examples of debris include non-operational satellites, rocket bodies, and fragments generated from explosions, collisions, or faulty payload assembly.

Loading next visibility...
Identifier
40463, 1995-015BF
Orbit
SSO
Country
Flag of USUS
Related business
Manufacturer
Unknown
Mission
Spacecraft
Bus & Motor
Unknown
Mass
Unknown
Launch date (UTC)
1995-03-24 (31 years ago)
Launch vehicle
Unknown
Launch site
Air Force Western Test Range (AFWTR)
Object type
Payload
Rocket body
Debris
Shape & HBR
Unknown shape, 0.1 m
Radar Cross Section
Small (<0.1 m²)

Expand to show TLE details & history
Last TLE update: 6 hours ago

TLE from 6 hours ago
0 DMSP 5D-2 F13 DEB
1 40463U 95015BF  25343.60669447  .00085281  00000-0  81877-2 0  9993
2 40463  98.6203 105.7570 0021574 208.6757 151.3274 14.92470944564592
Epoch: 2025-12-09T14:33Z
TLE epoch observation values (Epoch: 2025-12-09T14:33:38.402Z)
Latitude
-0.00009°
Longitude
168.75805°
Altitude
606.45 km
Speed
7.549 km/s
True Right ascension
07h 03m 01s
True Declination
0° 00' 00"
Sunlit
Object was in full shadow at epoch
Visualization orbit readout
Latitude
Unknown
Longitude
Unknown
Altitude
Unknown
Speed
Unknown
Apparent Right ascension
Unknown
Apparent Declination
Unknown
Sunlit
N/A
Visualization observer readout
Local Sidereal Time
19:10:59
Azimuth
Unknown
Elevation
Unknown
Doppler factor
Unknown
Orbital elements
Apogee altitude
602.319 km
Perigee altitude
572.265 km
Semi-major axis
6,965.429 km
Eccentricity
0.00216
Inclination
98.6203°
RAAN
105.757°
Arg. of periapsis
208.6757°
True anomaly
151.44574°
Mean anomaly
151.3274°
Eccentric anomaly
151.3866°
Mean motion
3.73354 °/min
Orbital period
96.42 mins
BSTAR
0.0081877
Loading maneuver chart data...
Computing Atmospheric mass density...

Documentation

Showing up to 5 results
|